Weather History for Kununurra, WE

Change the Weather History Date:

Sunday, May 12, 2013

  Actual Average Record
Temperature  
Mean Temperature 84 °F -  
Max Temperature 98 °F - - ()
Min Temperature 70 °F - - ()
Cooling Degree Days 19    
Growing Degree Days 34 (Base 50)    
Moisture  
Dew Point 67 °F    
Average Humidity 61    
Maximum Humidity 96    
Minimum Humidity 21    
Precipitation  
Precipitation 0.00 in - - ()
Sea Level Pressure  
Sea Level Pressure 29.87 in    
Wind  
Wind Speed 3 mph ()    
Max Wind Speed 12 mph    
Max Gust Speed -    
Visibility 5.8 miles    
Events      
T = Trace of Precipitation, MM = Missing Value Source: Averaged Metar Reports

Daily Weather History Graph

Daily Weather History Graph

Search for Another Location

Airport:

Trip Planner

Search our weather history database for the weather conditions in past years. The results will help you decide how hot, cold, wet, or windy it might be!

Date:

Astronomy

May. 12, 2013 Rise Set
Actual Time 5:39 AM AWST 5:03 PM AWST
Civil Twilight 5:16 AM AWST 5:26 PM AWST
Nautical Twilight 4:50 AM AWST 5:52 PM AWST
Astronomical Twilight 4:24 AM AWST 6:18 PM AWST
Moon 7:16 AM AWST (5/12) 6:51 PM AWST (5/12)
Length of Visible Light 12h 09m
Length of Day
11h 24m
Waxing Crescent, 4% of the Moon is Illuminated
May 12
Waxing Crescent
May 18
First Quarter
May 25
Full
Jun 1
Last Quarter
Jun 8
New

Hourly Weather History & Observations

Time (AWST) Temp. Heat Index Dew Point Humidity Pressure Visibility Wind Dir Wind Speed Gust Speed Precip Events Conditions
12:00 AM 76 °F - 71 °F 79% 29.87 in - North 3.5 mph - -  
12:00 AM 75.2 °F - 71.6 °F 89% 29.86 in 6.2 mi North 3.5 mph - N/A   Unknown
12:30 AM 75.2 °F - 69.8 °F 83% 29.86 in 6.2 mi Calm Calm - N/A   Unknown
1:00 AM 75.2 °F - 69.8 °F 83% 29.86 in 6.2 mi Calm Calm - N/A   Unknown
1:30 AM 73.4 °F - 69.8 °F 88% 29.83 in 6.2 mi Calm Calm - N/A   Unknown
2:00 AM 73 °F - 70 °F 89% 29.84 in - Calm Calm - -  
2:00 AM 73.4 °F - 69.8 °F 88% 29.83 in 6.2 mi Calm Calm - N/A   Unknown
2:30 AM 71.6 °F - 69.8 °F 94% 29.83 in 6.2 mi Calm Calm - N/A   Unknown
3:00 AM 72 °F - 69 °F 89% 29.84 in - Calm Calm - -  
3:00 AM 73.4 °F - 69.8 °F 88% 29.83 in 6.2 mi Calm Calm - N/A   Unknown
3:30 AM 71.6 °F - 69.8 °F 94% 29.83 in 6.2 mi Calm Calm - N/A   Unknown
4:00 AM 71.6 °F - 68.0 °F 88% 29.83 in 6.2 mi Calm Calm - N/A   Unknown
4:30 AM 71.6 °F - 69.8 °F 94% 29.86 in 1.6 mi North 1.2 mph - N/A   Unknown
5:00 AM 71 °F - 69 °F 92% 29.87 in - Calm Calm - -  
5:00 AM 71.6 °F - 69.8 °F 94% 29.86 in 0.8 mi Calm Calm - N/A   Unknown
5:30 AM 71.6 °F - 69.8 °F 94% 29.86 in 1.7 mi Calm Calm - N/A   Unknown
6:00 AM 71 °F - 70 °F 96% 29.88 in 2 mi Calm Calm - -  
6:00 AM 71.6 °F - 69.8 °F 94% 29.89 in - Calm Calm - N/A   Unknown
6:30 AM 75.2 °F - 73.4 °F 94% 29.89 in 6.2 mi Calm Calm - N/A   Unknown
7:00 AM 78.8 °F - 73.4 °F 83% 29.89 in 6.2 mi Calm Calm - N/A   Unknown
7:30 AM 82.4 °F 87.2 °F 71.6 °F 70% 29.92 in 6.2 mi North 1.2 mph - N/A   Unknown
8:00 AM 85 °F - 72 °F 56% 29.92 in - NNE 2.3 mph - -  
8:00 AM 84.2 °F 89.6 °F 71.6 °F 66% 29.92 in 6.2 mi NNE 2.3 mph - N/A   Unknown
8:30 AM 86.0 °F 90.4 °F 69.8 °F 58% 29.92 in 6.2 mi SE 4.6 mph - N/A   Unknown
9:00 AM 89 °F - 68 °F 40% 29.93 in - North 4.6 mph - -  
9:00 AM 89.6 °F 93.4 °F 68.0 °F 49% 29.92 in 6.2 mi North 4.6 mph - N/A   Unknown
9:30 AM 91.4 °F 95.4 °F 68.0 °F 46% 29.92 in 6.2 mi ENE 6.9 mph - N/A   Unknown
10:00 AM 91.4 °F 93.2 °F 64.4 °F 41% 29.92 in 6.2 mi NNE 6.9 mph - N/A   Unknown
10:30 AM 93.2 °F 94.9 °F 64.4 °F 38% 29.89 in 6.2 mi North 5.8 mph - N/A   Unknown
11:00 AM 93 °F - 62 °F 26% 29.90 in - NNE 5.8 mph - -  
11:00 AM 93.2 °F 94.1 °F 62.6 °F 36% 29.89 in 6.2 mi NNE 5.8 mph - N/A   Unknown
11:30 AM 91.4 °F 93.2 °F 64.4 °F 41% 29.89 in 6.2 mi North 1.2 mph - N/A   Scattered Clouds
12:00 PM 93 °F - 63 °F 27% 29.87 in - NNE 8.1 mph - -  
12:00 PM 93.2 °F 94.1 °F 62.6 °F 36% 29.86 in 6.2 mi NNE 8.1 mph - N/A   Scattered Clouds
12:30 PM 95.0 °F 95.2 °F 60.8 °F 32% 29.86 in 6.2 mi ESE 3.5 mph - N/A   Overcast
1:00 PM 95.0 °F 95.2 °F 60.8 °F 32% 29.83 in 6.2 mi NE 5.8 mph - N/A   Unknown
1:30 PM 95.0 °F 95.2 °F 60.8 °F 32% 29.83 in 6.2 mi NNE 5.8 mph - N/A   Unknown
2:00 PM 97 °F - 61 °F 21% 29.82 in - North 4.6 mph - -  
2:00 PM 96.8 °F 97.1 °F 60.8 °F 30% 29.83 in 6.2 mi North 4.6 mph - N/A   Unknown
2:30 PM 96.8 °F 97.1 °F 60.8 °F 30% 29.80 in 6.2 mi NNE 8.1 mph - N/A   Unknown
3:00 PM 96 °F - 61 °F 22% 29.81 in - North 5.8 mph - -  
3:00 PM 95.0 °F 95.2 °F 60.8 °F 32% 29.80 in 6.2 mi North 5.8 mph - N/A   Unknown
3:30 PM 95.0 °F 94.4 °F 59.0 °F 30% 29.80 in 6.2 mi North 6.9 mph - N/A   Scattered Clouds
4:00 PM 95.0 °F 95.2 °F 60.8 °F 32% 29.80 in 6.2 mi North 6.9 mph - N/A   Scattered Clouds
4:30 PM 89.6 °F 91.1 °F 64.4 °F 43% 29.83 in 6.2 mi North 6.9 mph - N/A   Scattered Clouds
5:00 PM 88 °F - 66 °F 38% 29.83 in - NNW 6.9 mph - -  
5:00 PM 87.8 °F 90.4 °F 66.2 °F 49% 29.83 in 6.2 mi NNW 6.9 mph - N/A   Unknown
5:30 PM 84.2 °F 87.3 °F 68.0 °F 58% 29.83 in 6.2 mi NNW 5.8 mph - N/A   Unknown
6:00 PM 83 °F - 68 °F 51% 29.85 in - NW 6.9 mph - -  
6:00 PM 84.2 °F 87.3 °F 68.0 °F 58% 29.83 in 6.2 mi NW 6.9 mph - N/A   Unknown
6:30 PM 82.4 °F 85.4 °F 68.0 °F 62% 29.86 in 6.2 mi WNW 6.9 mph - N/A   Unknown
7:00 PM 80.6 °F 83.2 °F 68.0 °F 65% 29.86 in 6.2 mi North 4.6 mph - N/A   Scattered Clouds
7:30 PM 80.6 °F 83.9 °F 69.8 °F 70% 29.89 in 6.2 mi North 6.9 mph - N/A   Unknown
8:00 PM 80 °F - 69 °F 63% 29.90 in - North 4.6 mph - -  
8:00 PM 80.6 °F 83.9 °F 69.8 °F 70% 29.89 in 6.2 mi North 4.6 mph - N/A   Unknown
8:30 PM 80.6 °F 83.9 °F 69.8 °F 70% 29.89 in 6.2 mi NNW 3.5 mph - N/A   Unknown
9:00 PM 79 °F - 70 °F 68% 29.91 in - ENE 4.6 mph - -  
9:00 PM 78.8 °F - 69.8 °F 74% 29.89 in 6.2 mi ENE 4.6 mph - N/A   Scattered Clouds
9:30 PM 80.6 °F 83.9 °F 69.8 °F 70% 29.92 in 6.2 mi SE 4.6 mph - N/A   Mostly Cloudy
10:00 PM 82.4 °F 86.3 °F 69.8 °F 66% 29.92 in 6.2 mi South 6.9 mph - N/A   Overcast
10:30 PM 84.2 °F 87.3 °F 68.0 °F 58% 29.92 in 6.2 mi South 10.4 mph - N/A   Mostly Cloudy
11:00 PM 83 °F - 68 °F 52% 29.93 in - South 11.5 mph - -  
11:00 PM 82.4 °F 85.4 °F 68.0 °F 62% 29.92 in 6.2 mi South 11.5 mph - N/A   Mostly Cloudy
11:30 PM 82.4 °F 85.4 °F 68.0 °F 62% 29.92 in 6.2 mi South 11.5 mph - N/A   Overcast